User: anonymous   Login
Location: Unspecified
(0.0000°N, 0.0000°E)
Time: 21:03:14
(UTC+02:00)
Language:

Cosmos 1300 - Orbit

View from above orbital plane
View from above orbital plane
View from above satellite
View from above satellite

Ground track
Ground track

The orbit data is extracted from the following two-line orbital elements,

1 12785U 81082A   15111.54926273  .00007471  00000-0  40853-3 0  9991
2 12785 082.5035 130.7231 0003349 095.9017 071.9725 15.14128442832539
Epoch (UTC): 21 April 2015 13:10:56
Eccentricity: 0.0003349
inclination: 82.5035°
perigee height: 521 km
apogee height: 526 km
right ascension of ascending node: 130.7231°
argument of perigee: 95.9017°
revolutions per day: 15.14128442
mean anomaly at epoch: 71.9725°
orbit number at epoch: 83253

The dashed part of the orbit path shows where the satellite is in the earth's shadow,  

DLR